User: anonymous
Location: Prairie State College
(41.5244°N, 87.6382°W)
Time: 21:12:00
(UTC-05:00)
Language:

ARGOS Delta rocket - Orbit

View from above orbital plane
View from above orbital plane
View from above satellite
View from above satellite

Ground track
Ground track

The orbit data is extracted from the following two-line orbital elements,

1 25637U 99008D   14263.97998968  .00000531  00000-0  13958-3 0  5905
2 25637 096.4828 023.3491 0143168 221.6889 274.9666 14.45949351821032
Epoch (UTC): 20 September 2014 23:31:11
Eccentricity: 0.0143168
inclination: 96.4828°
perigee height: 637 km
apogee height: 841 km
right ascension of ascending node: 23.3491°
argument of perigee: 221.6889°
revolutions per day: 14.45949351
mean anomaly at epoch: 274.9666°
orbit number at epoch: 82103

The dashed part of the orbit path shows where the satellite is in the earth's shadow,  

DLR